Voltar ao catálogo

LEMUR-2-TEODOR

AtivoCiênciaSSO
NORAD 66768·PAYLOAD·🇺🇸 United States

Lançado Nov 28, 2025 de Vandenberg Space Force Base

Loading…

Próximas Passagens (próximas 24 horas)

TLE

AtualizadoSource: Space-Track

Época: Sep 14, 2026, 14:59 UTC

1 66768U 25276DG  26257.62498799  .00004454  00000-0  19887-3 0  9994
2 66768  97.4077 330.0293 0001648 121.9613 238.1784 15.21874263 44045

Acompanhe LEMUR-2-TEODOR em tempo real com AllMySat

Download on the App Store